Terug naar catalogus

SL-8 R/B

ActiefPO
NORAD 18710·ROCKET BODY·🇷🇺 Russia

Gelanceerd Dec 23, 1987 vanaf Plesetsk Cosmodrome

Loading…

Volgende Passages (komende 24 uur)

TLE

VersSource: Space-Track

Epoch: Sep 14, 2026, 22:34 UTC

1 18710U 87106B   26257.94067211  .00000043  00000-0  28515-4 0  9993
2 18710  82.9152 329.5056 0023471  21.2610 157.8735 13.76308020944480

Volg SL-8 R/B in realtime met AllMySat

Download on the App Store